Location: New Plymouth
(39.0670°S, 174.0830°E)
Time: 23:36:12
(UTC+12:00)

STRAND 1 - Pass Details

Date: 29 August 2019
Orbit: 768 x 781 km, 98.5° (Epoch: 23 September)

Event Time Altitude Azimuth Distance (km) Brightness Sun altitude
Rises 18:55:38 0° 19° (NNE) 3,249 ? -11.9°
Reaches altitude 10° 18:57:56 10° 21° (NNE) 2,332 ? -12.3°
Maximum altitude 19:03:04 76° 105° (ESE) 816 ? -13.3°
Drops below altitude 10° 19:08:18 10° 190° (S) 2,368 ? -14.3°
Sets 19:10:39 0° 191° (S) 3,305 ? -14.8°
